Simultaneous Nadir Overpasses (SNOs) Predictions

Prediction of SNOs between AQUA and NOAA-19 Satellite Orbit:

Table of predicted SNOs for the next 14.0 days since TLE Epoch: 4/19/2013
Index Date (AQUA) Time (AQUA) Lat,Lon (AQUA) SZA (AQUA ) Date (NOAA-19) Time (NOAA-19) Lat,Lon (NOAA-19) SZA (NOAA-19 ) Distance(km) Time Diff (sec)
1 04/20/2013 16:14:12 49.29, -49.13 39.33 04/20/2013 16:13:17 49.21, -49.43 39.13 23.16 55
2 04/20/2013 17:02:42 -46.12, 119.76 143.28 04/20/2013 17:03:21 -46.02, 119.17 143.50 47.07 39
3 04/22/2013 20:58:23 48.91,-120.05 38.33 04/22/2013 20:57:34 48.85,-120.35 38.15 23.16 49
4 04/22/2013 21:46:59 -46.09, 48.70 143.97 04/22/2013 21:47:43 -45.98, 48.10 144.19 47.74 44
5 04/25/2013 01:42:34 48.56, 169.02 37.38 04/25/2013 01:41:51 48.51, 168.71 37.20 23.49 43
6 04/25/2013 02:31:16 -46.09, -22.37 144.62 04/25/2013 02:32:05 -45.95, -22.97 144.87 48.64 49
7 04/27/2013 06:26:45 48.24, 98.09 36.46 04/27/2013 06:26:08 48.17, 97.78 36.28 23.97 37
8 04/27/2013 07:15:33 -46.12, -93.45 145.24 04/27/2013 07:16:28 -45.99, -94.06 145.47 49.52 55
9 04/29/2013 11:10:54 47.82, 27.19 35.49 04/29/2013 11:10:24 47.78, 26.86 35.33 24.57 30
10 04/29/2013 11:59:49 -46.11,-164.51 145.86 04/29/2013 12:00:50 -45.97,-165.14 146.10 50.52 61
11 05/01/2013 15:55:04 47.48, -43.75 34.61 05/01/2013 15:54:40 47.41, -44.06 34.42 25.08 24
